Location: Pallagorio
(39.3000°N, 16.9000°E)
Time: 01:14:25
(UTC+00:00)

Cosmos 2082 Rocket - Pass Details

Date: 24 January 2021
Orbit: 832 x 854 km, 71.0° (Epoch: 08 March)

Event Time Altitude Azimuth Distance (km) Brightness Sun altitude
Rises 16:54:33 0° 355° (N) 3,432 5.3 -10.0°
Reaches altitude 10° 16:59:47 10° 35° (NE) 2,488 4.2 -11.0°
Maximum altitude 17:00:44 10° 45° (NE) 2,460 4.1 -11.2°
Enters shadow 17:00:48 10° 46° (NE) 2,460 4.1 -11.2°
